Location: *
(24.6251°S, 17.9614°E)
Time: 14:53:36
(UTC+00:00)

Daily predictions for brighter satellites

Satellite Brightness Start Highest point End
(mag) Time Altitude Azimuth Time Altitude Azimuth Time Altitude Azimuth
Cosmos 2208 Rocket 4.2 16:48:42 10° NNW 16:53:52 82° WSW 16:59:07 10° SSE
Envisat 4.1 16:51:59 10° SE 16:55:56 22° E 16:59:50 10° NNE
Cosmos 2195 Rocket 4.5 16:50:23 10° N 16:56:29 72° E 17:02:38 10° S
Cosmos 1092 Rocket 4.1 16:50:30 10° N 16:56:45 88° W 17:03:07 10° S
Cosmos 2297 3.7 16:51:49 10° N 16:57:32 74° ENE 17:03:17 10° SSE
ATLAS 5 CENTAUR R/B 2.9 16:51:51 10° NNW 16:58:57 80° WSW 17:05:50 10° SSE
Okean-O 2.7 16:56:27 10° SSE 17:00:53 61° E 17:05:16 10° N
Aurora 2 Rocket 3.5 16:54:02 10° WNW 17:00:56 59° NNE 17:05:42 10° E
YAOGAN 1 4.0 17:04:07 10° SE 17:06:59 17° E 17:09:49 10° NE
SAR-Lupe-2 3.5 17:04:16 10° NNE 17:07:49 68° ESE 17:11:25 10° S
CZ-3C R/B 2.4 17:02:55 10° W 17:12:49 52° N 17:15:22 11° ENE
SL-4 R/B 2.9 17:08:18 10° NW 17:13:03 60° SW 17:17:37 10° SSE
GPS 2-14 Rocket1 4.0 17:10:30 10° NW 17:13:54 28° NNE 17:17:03 12° ENE
GEOS 3 Rocket 3.8 17:11:35 10° SE 17:16:41 50° ENE 17:21:41 10° NNW
ASC 2 Rocket 3.3 17:12:22 10° WNW 17:17:11 58° N 17:20:24 15° E
GPS 2-17 Rocket1 4.3 17:13:45 10° NW 17:17:39 29° NNE 17:21:07 13° ENE
Meteor 2-6 Rocket 4.3 17:13:10 10° N 17:19:04 76° E 17:24:55 10° S
H-2A R/B 3.0 17:15:27 10° S 17:19:21 73° WSW 17:23:08 10° NNW
Cosmos 1869 Rocket 3.8 17:18:10 10° S 17:22:34 75° W 17:26:53 10° N
Cosmos 1833 Rocket 2.7 17:17:08 10° S 17:22:43 58° ESE 17:28:15 10° NNE
Cosmos 1812 3.7 17:19:44 10° NNE 17:22:57 25° E 17:26:11 10° SE
Gbstr 26 Del rocket 4.3 17:19:33 10° WNW 17:22:59 33° SW 17:26:42 10° SSE
Cosmos 1733 Rocket 4.0 17:19:59 10° SSE 17:23:40 25° E 17:27:17 10° NE
Cosmos 1782 4.5 17:20:52 10° NNW 17:24:34 37° W 17:28:20 10° SSW
BREEZE-M DEB (TANK) 4.0 17:21:37 10° SW 17:25:30 69° NW 17:39:13 10° NE
ADEOS Rocket 4.2 17:21:46 10° NE 17:28:11 32° ESE 17:34:50 10° S
Cosmos 2082 Rocket 2.4 17:25:59 10° S 17:31:23 45° ESE 17:36:44 10° NE
CZ-3B R/B 3.3 17:18:12 10° WNW 17:33:57 59° NNE 17:38:49 21° E
Cosmos 1898 Rocket 3.5 17:28:36 10° SSW 17:34:00 88° ESE 17:39:19 10° NNE
Cosmos 1400 Rocket 2.6 17:31:48 10° N 17:35:39 71° E 17:39:37 10° SSE
Mugunghwa Rocket 4.2 17:31:31 10° W 17:38:08 77° S 17:42:54 23° E
FengYun 1-2 T 4.3 17:33:02 10° SSE 17:38:26 53° E 17:43:45 10° N
Cosmos 2266 Rocket 4.3 17:36:50 10° NNE 17:42:27 41° E 17:48:12 10° SSE
NOSS 3-2 (A) 4.2 17:35:04 10° NNW 17:43:34 67° ENE 17:51:37 10° SE
Cosmos 858 Rocket 4.4 17:38:53 10° SSW 17:44:11 81° ESE 17:49:27 10° NNE
CZ-4 R/B 1.3 17:40:04 10° SSE 17:44:15 77° ENE 17:48:17 10° N
Cosmos 1862 Rocket 3.7 17:42:53 10° N 17:47:20 77° W 17:51:50 10° S
CZ-4C R/B 2.0 17:44:25 10° SSW 17:49:22 49° ESE 17:51:17 31° ENE
Cosmos 1553 Rocket 3.9 17:45:57 10° S 17:52:01 61° E 17:58:06 10° NNE
CENTAUR R/B 3.7 17:45:00 10° N 17:52:23 33° ENE 17:54:55 28° E
Aureole 3 Rocket 4.4 17:46:12 10° S 17:53:23 41° ESE 17:57:10 19° NE
NOSS 2-1 (C) 4.4 17:46:40 10° SSW 17:53:26 53° ESE 17:55:51 30° ENE
Meteor 1-5 Rocket 4.5 17:48:56 10° S 17:54:46 49° E 18:00:27 10° NNE
NOSS 2-1 (D) 4.3 17:49:44 10° SSW 17:56:33 58° ESE 17:58:52 32° ENE
CSL-04 Rocket 3.5 17:51:50 10° SSE 17:57:09 74° ENE 18:02:25 10° N
BREEZE-M DEB (TANK) 4.2 17:53:12 10° NNW 17:57:37 58° ENE 18:16:56 10° SE
BREEZE M DEB (TANK) 3.5 17:54:56 10° SW 17:57:54 67° NW 18:05:47 10° NE
Meteor 1-11 Rocket 4.0 17:52:26 10° S 17:57:56 46° E 18:03:28 10° NNE
Meteor 1-27 Rocket 3.6 17:52:36 10° N 17:58:11 90° E 18:03:47 10° S
Cosmos 2369 Rocket 2.1 17:52:47 10° N 17:58:15 59° ENE 18:01:54 21° SSE
CZ-3 Stage 3 4.4 17:41:45 10° WSW 17:59:00 32° NW 18:03:52 10° N
STPSAT 2 (USA 217) 4.5 17:58:00 10° SSW 18:02:38 69° ESE 18:04:30 35° NE
Cosmos 1417 Rocket 4.4 17:58:06 10° S 18:04:26 79° E 18:10:36 10° N
SWIFT 4.5 18:07:31 10° WNW 18:10:19 17° NNW 18:11:37 15° N
Cosmos 2263 4.3 18:05:06 10° N 18:10:35 52° ENE 18:11:09 50° E
YAOGAN 6 3.2 18:07:59 12° S 18:11:08 52° WSW 18:14:32 10° NNW
ERBS 3.7 18:09:48 10° SSW 18:11:51 33° SSW 18:11:51 33° SSW
Meteor 2-13 Rocket 4.3 18:07:41 10° N 18:13:48 81° E 18:19:59 10° S
Cosmos 1937 Rocket 4.4 18:09:54 10° SSW 18:14:56 49° WNW 18:19:59 10° N
S3M 3.9 18:12:43 10° S 18:19:12 82° E 18:25:33 10° N
Cosmos 1315 Rocket 3.7 18:18:02 10° N 18:20:49 42° NNW 18:20:49 42° NNW
SJ 16-02 2.9 18:21:28 10° SW 18:25:28 34° W 18:29:27 10° NNW
Delta 198 4.4 18:23:48 10° W 18:30:47 86° N 18:31:44 69° E
ATLAS 3B R/B 2.7 18:26:07 10° NNW 18:33:13 69° ENE 18:34:11 62° ESE
Cosmos 1943 Rocket 2.9 18:29:56 10° NW 18:35:25 52° WSW 18:39:34 18° S
NOSS 2-1 (E) 4.3 18:32:54 10° SSW 18:39:21 64° WNW 18:39:52 60° NW
Centaur AC-72 2.9 18:40:20 10° WNW 18:46:39 59° N 18:46:44 59° N
Aurora 2 Rocket 4.2 18:49:05 10° W 18:52:20 34° W 18:52:20 34° W
CENTAUR R/B 4.0 19:35:04 10° NW 19:42:13 43° WSW 19:42:13 43° WSW
CZ-3B R/B 4.2 19:50:14 10° W 19:53:51 23° W 19:53:51 23° W
